Weather History for Iliamna, AK

Change the Weather History Date:

Thursday, November 21, 2013

  Actual Average Record
Temperature  
Mean Temperature 23 °F -  
Max Temperature 30 °F 32 °F 50 °F (2014)
Min Temperature 16 °F 21 °F -15 °F (2008)
Degree Days  
Heating Degree Days 42    
Moisture  
Dew Point 23 °F    
Average Humidity 93    
Maximum Humidity 100    
Minimum Humidity 52    
Precipitation  
Precipitation 0.24 in - - ()
Snow  
Snow 0.00 in - - ()
Snow Depth 11.00 in    
Sea Level Pressure  
Sea Level Pressure 29.33 in    
Wind  
Wind Speed 9 mph (North)    
Max Wind Speed 13 mph    
Max Gust Speed -    
Visibility 3 miles    
Events Fog , Snow    
Averages and records for this station are not official NWS values.
T = Trace of Precipitation, MM = Missing Value Source: NWS Daily Summary

Daily Weather History Graph

Daily Weather History Graph

Search for Another Location

Airport:

Trip Planner

Search our weather history database for the weather conditions in past years. The results will help you decide how hot, cold, wet, or windy it might be!

Date:

Astronomy

Nov. 21, 2013 Rise Set
Actual Time 9:31 AM AKST 4:38 PM AKST
Civil Twilight 8:41 AM AKST 5:29 PM AKST
Nautical Twilight 7:48 AM AKST 6:22 PM AKST
Astronomical Twilight 6:59 AM AKST 7:11 PM AKST
Moon 8:37 PM AKST (11/21) 12:36 PM AKST (11/21)
Length of Visible Light 8h 48m
Length of Day
7h 07m
Waning Gibbous, 84% of the Moon is Illuminated
Nov 21
Waning Gibbous
Nov 25
Last Quarter
Dec 2
New
Dec 9
First Quarter
Dec 17
Full

Hourly Weather History & Observations

Time (AKST) Temp. Windchill Dew Point Humidity Pressure Visibility Wind Dir Wind Speed Gust Speed Precip Events Conditions
12:53 AM 15.1 °F 4.2 °F 6.1 °F 68% 29.82 in 10.0 mi NNE 8.1 mph - N/A   Scattered Clouds
1:53 AM 18.0 °F 6.9 °F 7.0 °F 62% 29.80 in 10.0 mi NNE 9.2 mph - N/A   Mostly Cloudy
2:53 AM 19.0 °F 8.2 °F 9.0 °F 65% 29.78 in 10.0 mi North 9.2 mph - N/A   Overcast
3:53 AM 19.0 °F 8.2 °F 14.0 °F 81% 29.76 in 10.0 mi North 9.2 mph - N/A   Overcast
4:53 AM 19.9 °F 9.3 °F 10.9 °F 68% 29.73 in 10.0 mi North 9.2 mph - N/A   Overcast
5:53 AM 21.0 °F 11.4 °F 12.9 °F 71% 29.70 in 10.0 mi North 8.1 mph - N/A   Overcast
6:53 AM 21.0 °F 10.6 °F 15.1 °F 78% 29.68 in 8.0 mi North 9.2 mph - 0.00 in Snow Light Snow
7:39 AM 19.4 °F 7.2 °F 17.6 °F 93% 29.65 in 3.0 mi NNW 11.5 mph - 0.00 in Snow Light Snow
7:53 AM 19.9 °F 8.6 °F 18.0 °F 92% 29.66 in 6.0 mi North 10.4 mph - 0.00 in Snow Light Snow
8:42 AM 21.2 °F 11.7 °F 17.6 °F 86% 29.61 in 4.0 mi North 8.1 mph - 0.00 in Snow Light Snow
8:53 AM 21.9 °F 14.5 °F 18.0 °F 85% 29.62 in 3.0 mi NNE 5.8 mph - 0.00 in Snow Light Snow
9:03 AM 21.2 °F 11.7 °F 19.4 °F 93% 29.61 in 2.0 mi North 8.1 mph - 0.00 in Snow Light Snow
9:45 AM 21.2 °F 12.6 °F 19.4 °F 93% 29.58 in 1.8 mi North 6.9 mph - 0.00 in Snow Light Snow
9:53 AM 21.9 °F 14.5 °F 19.9 °F 92% 29.60 in 1.5 mi North 5.8 mph - 0.00 in Snow Light Snow
10:31 AM 21.2 °F 12.6 °F 19.4 °F 93% 29.56 in 0.8 mi North 6.9 mph - 0.01 in Snow Light Snow
10:53 AM 21.0 °F 10.6 °F 19.9 °F 96% 29.55 in 0.8 mi North 9.2 mph - 0.02 in Snow Light Snow
11:53 AM 21.9 °F 11.7 °F 21.0 °F 96% 29.49 in 0.5 mi North 9.2 mph - 0.04 in Fog , Snow Snow
12:30 PM 23.0 °F 13.1 °F 21.2 °F 93% 29.44 in 0.5 mi North 9.2 mph - 0.02 in Fog , Snow Snow
12:53 PM 23.0 °F 13.1 °F 21.9 °F 96% 29.43 in 0.5 mi North 9.2 mph - 0.04 in Fog , Snow Snow
1:12 PM 23.0 °F 13.9 °F 23.0 °F 100% 29.40 in 0.5 mi North 8.1 mph - 0.01 in Fog , Snow Snow
1:53 PM 24.1 °F 14.4 °F 24.1 °F 100% 29.36 in 0.8 mi North 9.2 mph - 0.02 in Snow Light Snow
2:12 PM 24.8 °F 16.1 °F 24.8 °F 100% 29.33 in 1.0 mi North 8.1 mph - 0.00 in Snow Light Snow
2:32 PM 24.8 °F 16.9 °F 24.8 °F 100% 29.30 in 0.8 mi North 6.9 mph - 0.01 in Snow Light Snow
2:53 PM 25.0 °F 16.3 °F 24.1 °F 96% 29.29 in 0.8 mi North 8.1 mph - 0.02 in Snow Light Snow
3:27 PM 26.6 °F 16.8 °F 24.8 °F 93% 29.24 in 1.0 mi North 10.4 mph - 0.01 in Snow Light Snow
3:29 PM 26.6 °F 16.2 °F 24.8 °F 93% 29.24 in 0.8 mi North 11.5 mph - 0.01 in Snow Light Snow
3:53 PM 26.1 °F 16.8 °F 25.0 °F 96% 29.23 in 0.8 mi North 9.2 mph - 0.02 in Snow Light Snow
4:53 PM 28.0 °F 17.5 °F 27.0 °F 96% 29.17 in 0.8 mi North 12.7 mph - 0.02 in Snow Light Snow
5:12 PM 28.4 °F 18.0 °F 28.4 °F 100% 29.14 in 0.8 mi North 12.7 mph - 0.02 in Snow Light Snow
5:20 PM 28.4 °F 19.7 °F 28.4 °F 100% 29.13 in 0.8 mi North 9.2 mph - 0.02 in Snow Light Snow
5:53 PM 28.0 °F 20.0 °F 28.0 °F 100% 29.13 in 0.8 mi North 8.1 mph - 0.04 in Snow Light Snow
6:17 PM 28.4 °F 19.7 °F 28.4 °F 100% 29.10 in 0.8 mi North 9.2 mph - 0.02 in Snow Ice Pellets
6:29 PM 28.4 °F 20.4 °F 28.4 °F 100% 29.09 in 0.8 mi North 8.1 mph - 0.03 in Snow Snow
6:44 PM 28.4 °F 21.2 °F 28.4 °F 100% 29.08 in 0.8 mi North 6.9 mph - 0.05 in Snow Snow
6:53 PM 28.9 °F 20.4 °F 28.9 °F 100% 29.09 in 0.8 mi North 9.2 mph - 0.07 in Snow Snow
7:03 PM 28.4 °F 20.4 °F 28.4 °F 100% 29.07 in 0.5 mi North 8.1 mph - 0.01 in Fog , Snow Light Snow
7:30 PM 28.4 °F 19.7 °F 28.4 °F 100% 29.05 in 0.8 mi North 9.2 mph - 0.04 in Snow Light Snow
7:44 PM 30.2 °F 20.8 °F 30.2 °F 100% 29.05 in 0.8 mi North 11.5 mph - 0.05 in Snow Light Snow
7:47 PM 30.2 °F 21.3 °F 30.2 °F 100% 29.05 in 1.0 mi North 10.4 mph - 0.05 in Snow Light Snow
7:53 PM 30.0 °F 20.5 °F 30.0 °F 100% 29.06 in 1.0 mi North 11.5 mph - 0.05 in Snow Light Snow
8:53 PM 30.0 °F 21.7 °F 30.0 °F 100% 29.04 in 1.5 mi North 9.2 mph - 0.03 in Snow Light Snow
9:08 PM 30.2 °F 22.6 °F 30.2 °F 100% 29.03 in 1.0 mi NNW 8.1 mph - 0.03 in Snow Light Snow
9:14 PM 30.2 °F 22.6 °F 30.2 °F 100% 29.03 in 0.8 mi NNW 8.1 mph - 0.04 in Snow Light Snow
9:53 PM 30.0 °F 23.2 °F 30.0 °F 100% 29.04 in 0.5 mi West 6.9 mph - 0.10 in Fog Light Freezing Fog
10:08 PM 30.2 °F 22.6 °F 30.2 °F 100% 29.04 in 1.5 mi West 8.1 mph - N/A   Overcast
10:16 PM 30.2 °F 24.3 °F 30.2 °F 100% 29.04 in 1.8 mi West 5.8 mph - 0.01 in   Overcast
10:42 PM 30.2 °F 26.7 °F 30.2 °F 100% 29.05 in 0.8 mi West 3.5 mph - 0.03 in   Mist
10:53 PM 30.0 °F 25.2 °F 30.0 °F 100% 29.06 in 0.8 mi WNW 4.6 mph - 0.04 in   Mist
11:04 PM 30.2 °F 25.4 °F 30.2 °F 100% 29.05 in 1.0 mi NW 4.6 mph - 0.01 in   Mist
11:24 PM 30.2 °F 23.4 °F 30.2 °F 100% 29.06 in 3.0 mi NW 6.9 mph - 0.02 in   Overcast
11:53 PM 30.0 °F 24.1 °F 30.0 °F 100% 29.08 in 6.0 mi NW 5.8 mph - 0.02 in Snow Light Snow